KMGEKVPC

Guest
Details From KMGE - DOBBINS ARB
To KVPC - CARTERSVILLE
Flight Number -
Tags generated
Created
Modified
Stats Distance 21 nm / 38 km
Max Altitude 0 ft / 0 m
Waypoints 2
Social Downloads 8
Likes 0
Share

Download

Looking for another format? Having issues loading an existing format? Contact us
Advertisement - Login to hide

Notes

Basic altitude profile: - Ascent Rate: 2500ft/min - Ascent Speed: 250kts - Cruise Altitude: 35000ft - Cruise Speed: 420kts - Descent Rate: 1500ft/min - Descent Speed: 250kts Options: - Use NATs: yes - Use PACOTS: yes - Use low airways: yes - Use high airways: yes

Route

KMGE KVPC

ID Type Via Altitude (ft/m) Position (lat/lon) Dist (leg/tot) Name
O KMGE APT - 0 / 0 33.91528 / -84.51635 - / 0 nm DOBBINS ARB
O KVPC APT - 0 / 0 34.12315 / -84.84871 20 / 20 nm CARTERSVILLE

Altitude Profile

Advertisement - Login to hide

KMGE

Details ICAO KMGE (MGE)
Name Dobbins ARB
Region United States
Timezone America/New_York (UTC-4.0)
Stats Elevation 1,066 ft / 325 m (AMSL)
Location 33.914400° -84.514200°
Runways 2
Magnetic Variation 5.386° W

METAR

KMGE 240156Z 33005KT 10SM CLR 15/09 A3006 RMK AO2A SLP178 T01530090 $

Decode

TAF

TAF AMD KMGE 232251Z 2322/2503 32010G15KT 9999 FEW050 QNH3000INS BECMG 2400/2401 34008KT 9999 SKC QNH3004INS BECMG 2415/2416 06005KT 9999 SKC QNH3008INS TX24/2421Z TN11/2411Z

Decode

Departure Runways

ID Width Length Bearing (true/mag) Surface Threshold Overrun Markings Lighting
11 300 ft / 91 m 10,009 ft / 3,051 m 106.30° / 111.69° CONCRETE 0 ft / 0 m 1,001 ft / 305 m PREC-APP EDGE THRESHOLD ALSF-I
11L 59 ft / 18 m 3,504 ft / 1,068 m 106.29° / 111.68° CONCRETE 0 ft / 0 m 0 ft / 0 m NONE EDGE THRESHOLD
29 300 ft / 91 m 10,009 ft / 3,051 m 286.32° / 291.71° CONCRETE 0 ft / 0 m 1,001 ft / 305 m PREC-APP EDGE THRESHOLD ALSF-II REIL-OMNI
29R 59 ft / 18 m 3,504 ft / 1,068 m 286.30° / 291.68° CONCRETE 0 ft / 0 m 0 ft / 0 m NONE EDGE THRESHOLD

KVPC

Details ICAO KVPC
Name CARTERSVILLE
Region United States
Timezone America/New_York (UTC-4.0)
Stats Elevation 759 ft / 231 m (AMSL)
Location 34.123100° -84.848700°
Runways 1
Magnetic Variation 5.186° W

METAR

KVPC 240215Z AUTO 00000KT 3SM BR CLR 13/12 A3009 RMK AO2

Decode

TAF

Not found

Destination Runways

ID Width Length Bearing (true/mag) Surface Threshold Overrun Markings Lighting
01 100 ft / 30 m 5,776 ft / 1,761 m 3.47° / 8.66° ASPHALT 740 ft / 226 m 0 ft / 0 m APP EDGE THRESHOLD
19 100 ft / 30 m 5,776 ft / 1,761 m 183.47° / 188.66° ASPHALT 0 ft / 0 m 0 ft / 0 m APP EDGE THRESHOLD REIL-OMNI

Approach Navaids

Runway Type Ident Frequency Range Bearing (true/mag) Slope Elevation
19 LOC-LOC IVPC 110.35 MHz 18 nm / 33 km 183.47° / 188.66 ° - 759 ft / 231 m (AMSL)
19 DME IVPC 110.35 MHz 18 nm / 33 km - - 759 ft / 231 m (AMSL)